When you browse on this site, cookies collect data to enhance your experience and personalize the content and advertising you see.
Visit our Privacy Policy to learn more. By continuing to use the site, you agree to this use of cookies and data.
  • Em Portugal
  • Lista de países
  • Para 7 dias
  • Temperatura da água
  • Mapas de satélite
  • Mapa do tempo
  • Widgets de tempo
  • user-avatar
    Iniciar Sessão

    Previsão horária em Osaka

    Hoje, 21 Abril, Domingo

    Tempo Temperatura Precipitação Vento Pressão Humidade
    00:00 +19°C° 0 mm 1 m/s 760 mmHg 68%
    01:00 +19°C° 0 mm 1 m/s 760 mmHg 68%
    02:00 +18°C° 0 mm 1 m/s 760 mmHg 69%
    03:00 +18°C° 0 mm 1 m/s 760 mmHg 68%
    04:00 +18°C° 0 mm 1 m/s 760 mmHg 69%
    05:00 +18°C° 0 mm 1 m/s 760 mmHg 69%
    06:00 +18°C° 0 mm 1 m/s 760 mmHg 70%
    07:00 +19°C° 0 mm 1 m/s 760 mmHg 67%
    08:00 +21°C° 0 mm 1 m/s 760 mmHg 63%
    09:00 +23°C° 0 mm 1 m/s 760 mmHg 60%
    10:00 +24°C° 0 mm 2 m/s 760 mmHg 56%
    11:00 +25°C° 0 mm 2 m/s 759 mmHg 52%
    12:00 +27°C° 0 mm 3 m/s 759 mmHg 48%
    13:00 +27°C° 0 mm 3 m/s 759 mmHg 47%
    14:00 +27°C° 0 mm 4 m/s 758 mmHg 45%
    15:00 +28°C° 0 mm 4 m/s 758 mmHg 44%
    16:00 +27°C° 0 mm 4 m/s 758 mmHg 48%
    17:00 +26°C° 0 mm 4 m/s 758 mmHg 51%
    18:00 +26°C° 0 mm 3 m/s 758 mmHg 55%
    19:00 +25°C° 0 mm 3 m/s 758 mmHg 59%
    20:00 +24°C° 0 mm 3 m/s 759 mmHg 64%
    21:00 +23°C° 0 mm 2 m/s 759 mmHg 68%
    22:00 +23°C° 0 mm 2 m/s 759 mmHg 70%
    23:00 +22°C° 0 mm 1 m/s 759 mmHg 72%

    Amanhã, 22 Abril, Segunda-feira

    Tempo Temperatura Precipitação Vento Pressão Humidade
    00:00 +22°C° 0 mm 1 m/s 759 mmHg 74%
    01:00 +21°C° 0 mm 1 m/s 759 mmHg 75%
    02:00 +21°C° 0 mm 1 m/s 759 mmHg 76%
    03:00 +18°C° 0 mm 0 m/s 759 mmHg 77%
    04:00 +18°C° 0 mm 0 m/s 759 mmHg 77%
    05:00 +20°C° 0 mm 1 m/s 760 mmHg 76%
    06:00 +20°C° 0 mm 1 m/s 760 mmHg 76%
    07:00 +21°C° 0 mm 1 m/s 760 mmHg 72%
    08:00 +21°C° 0 mm 1 m/s 760 mmHg 67%
    09:00 +21°C° 0 mm 2 m/s 760 mmHg 63%
    10:00 +23°C° 0 mm 2 m/s 760 mmHg 57%
    11:00 +24°C° 0 mm 2 m/s 760 mmHg 51%
    12:00 +26°C° 0 mm 2 m/s 760 mmHg 44%
    13:00 +26°C° 0 mm 2 m/s 760 mmHg 41%
    14:00 +27°C° 0 mm 3 m/s 760 mmHg 38%
    15:00 +27°C° 0 mm 3 m/s 760 mmHg 35%
    16:00 +26°C° 0 mm 4 m/s 760 mmHg 37%
    17:00 +25°C° 0 mm 4 m/s 760 mmHg 39%
    18:00 +23°C° 0 mm 4 m/s 760 mmHg 40%
    19:00 +22°C° 0 mm 4 m/s 761 mmHg 43%
    20:00 +20°C° 0 mm 3 m/s 762 mmHg 46%
    21:00 +19°C° 0 mm 2 m/s 762 mmHg 49%
    22:00 +18°C° 0 mm 2 m/s 762 mmHg 51%
    23:00 +18°C° 0 mm 2 m/s 763 mmHg 53%

    Depois de amanhã, 23 Abril, Terça-feira

    Tempo Temperatura Precipitação Vento Pressão Humidade
    00:00 +17°C° 0 mm 2 m/s 763 mmHg 55%
    01:00 +17°C° 0 mm 2 m/s 763 mmHg 56%
    02:00 +16°C° 0 mm 2 m/s 763 mmHg 56%
    03:00 +16°C° 0 mm 2 m/s 763 mmHg 56%
    04:00 +16°C° 0 mm 2 m/s 763 mmHg 56%
    05:00 +16°C° 0 mm 2 m/s 763 mmHg 55%
    06:00 +16°C° 0 mm 2 m/s 763 mmHg 54%
    07:00 +18°C° 0 mm 2 m/s 764 mmHg 50%
    08:00 +20°C° 0 mm 2 m/s 764 mmHg 46%
    09:00 +23°C° 0 mm 2 m/s 764 mmHg 42%
    10:00 +25°C° 0 mm 2 m/s 764 mmHg 40%
    11:00 +27°C° 0 mm 2 m/s 764 mmHg 38%
    12:00 +28°C° 0 mm 2 m/s 764 mmHg 36%
    13:00 +28°C° 0 mm 2 m/s 764 mmHg 39%
    14:00 +28°C° 0 mm 2 m/s 763 mmHg 42%
    15:00 +28°C° 0 mm 3 m/s 763 mmHg 44%
    16:00 +27°C° 0 mm 3 m/s 763 mmHg 49%
    17:00 +26°C° 0 mm 2 m/s 763 mmHg 54%
    18:00 +25°C° 0 mm 2 m/s 764 mmHg 59%
    19:00 +24°C° 0 mm 2 m/s 764 mmHg 62%
    20:00 +24°C° 0 mm 2 m/s 764 mmHg 64%
    21:00 +23°C° 0 mm 2 m/s 765 mmHg 67%
    22:00 +23°C° 0 mm 1 m/s 764 mmHg 68%
    23:00 +22°C° 0 mm 1 m/s 764 mmHg 70%

    24 Abril, Quarta-feira

    Tempo Temperatura Precipitação Vento Pressão Humidade
    00:00 +22°C° 0 mm 1 m/s 764 mmHg 72%
    01:00 +22°C° 0.3 mm 1 m/s 764 mmHg 74%
    02:00 +21°C° 0.3 mm 1 m/s 764 mmHg 75%
    03:00 +21°C° 0.3 mm 1 m/s 763 mmHg 77%
    04:00 +21°C° 0.2 mm 1 m/s 763 mmHg 78%
    05:00 +21°C° 0.2 mm 1 m/s 763 mmHg 78%
    06:00 +20°C° 0.2 mm 1 m/s 763 mmHg 79%
    07:00 +22°C° 0 mm 1 m/s 763 mmHg 73%
    08:00 +23°C° 0 mm 2 m/s 763 mmHg 67%
    09:00 +24°C° 0 mm 2 m/s 763 mmHg 61%
    10:00 +25°C° 0 mm 2 m/s 763 mmHg 55%
    11:00 +26°C° 0 mm 3 m/s 762 mmHg 48%
    12:00 +28°C° 0 mm 4 m/s 762 mmHg 41%
    13:00 +27°C° 0.1 mm 4 m/s 761 mmHg 43%
    14:00 +26°C° 0.1 mm 5 m/s 761 mmHg 45%
    15:00 +25°C° 0.1 mm 5 m/s 760 mmHg 48%
    16:00 +25°C° 0.2 mm 4 m/s 760 mmHg 51%
    17:00 +24°C° 0.2 mm 3 m/s 760 mmHg 54%
    18:00 +23°C° 0.2 mm 2 m/s 759 mmHg 58%
    19:00 +23°C° 0.4 mm 2 m/s 759 mmHg 62%
    20:00 +21°C° 0.4 mm 2 m/s 759 mmHg 65%
    21:00 +21°C° 0.4 mm 2 m/s 759 mmHg 69%
    22:00 +21°C° 0.9 mm 2 m/s 758 mmHg 71%
    23:00 +20°C° 0.9 mm 2 m/s 758 mmHg 73%

    25 Abril, Quinta-feira

    Tempo Temperatura Precipitação Vento Pressão Humidade
    00:00 +20°C° 0.9 mm 2 m/s 757 mmHg 76%
    01:00 +20°C° 0.9 mm 2 m/s 756 mmHg 77%
    02:00 +20°C° 0.9 mm 2 m/s 756 mmHg 79%
    03:00 +20°C° 0.9 mm 2 m/s 755 mmHg 80%
    04:00 +20°C° 0.2 mm 2 m/s 755 mmHg 80%
    05:00 +20°C° 0.2 mm 2 m/s 755 mmHg 80%
    06:00 +20°C° 0.2 mm 2 m/s 755 mmHg 80%
    07:00 +22°C° 0.1 mm 1 m/s 754 mmHg 76%
    08:00 +23°C° 0.1 mm 1 m/s 754 mmHg 72%
    09:00 +24°C° 0.1 mm 1 m/s 754 mmHg 69%
    10:00 +25°C° 0 mm 1 m/s 754 mmHg 66%
    11:00 +26°C° 0 mm 1 m/s 753 mmHg 63%
    12:00 +27°C° 0 mm 1 m/s 753 mmHg 60%
    13:00 +28°C° 0 mm 1 m/s 753 mmHg 56%
    14:00 +29°C° 0 mm 2 m/s 752 mmHg 53%
    15:00 +30°C° 0 mm 2 m/s 752 mmHg 50%
    16:00 +30°C° 0.1 mm 2 m/s 752 mmHg 52%
    17:00 +29°C° 0.1 mm 2 m/s 752 mmHg 54%
    18:00 +28°C° 0.1 mm 3 m/s 752 mmHg 56%
    19:00 +27°C° 0.2 mm 3 m/s 752 mmHg 60%
    20:00 +27°C° 0.2 mm 3 m/s 753 mmHg 64%
    21:00 +26°C° 0.2 mm 2 m/s 753 mmHg 67%
    22:00 +25°C° 0.3 mm 3 m/s 753 mmHg 70%
    23:00 +25°C° 0.3 mm 3 m/s 752 mmHg 73%

    26 Abril, Sexta-feira

    Tempo Temperatura Precipitação Vento Pressão Humidade
    00:00 +24°C° 0.3 mm 3 m/s 752 mmHg 76%
    01:00 +24°C° 0.1 mm 3 m/s 752 mmHg 76%
    02:00 +22°C° 0.1 mm 3 m/s 752 mmHg 77%
    03:00 +22°C° 0.1 mm 3 m/s 752 mmHg 77%
    04:00 +21°C° 0.2 mm 3 m/s 752 mmHg 78%
    05:00 +21°C° 0.2 mm 3 m/s 753 mmHg 79%
    06:00 +21°C° 0.2 mm 3 m/s 753 mmHg 79%
    07:00 +21°C° 0.1 mm 3 m/s 753 mmHg 76%
    08:00 +21°C° 0.1 mm 3 m/s 754 mmHg 72%
    09:00 +23°C° 0.1 mm 2 m/s 754 mmHg 69%
    10:00 +21°C° 0.1 mm 3 m/s 754 mmHg 67%
    11:00 +21°C° 0.1 mm 3 m/s 754 mmHg 66%
    12:00 +20°C° 0.1 mm 4 m/s 754 mmHg 64%
    13:00 +20°C° 0 mm 3 m/s 754 mmHg 62%
    14:00 +20°C° 0 mm 3 m/s 754 mmHg 59%
    15:00 +20°C° 0 mm 3 m/s 754 mmHg 57%
    16:00 +19°C° 0 mm 4 m/s 754 mmHg 58%
    17:00 +19°C° 0 mm 4 m/s 754 mmHg 59%
    18:00 +18°C° 0 mm 4 m/s 754 mmHg 60%
    19:00 +17°C° 0 mm 4 m/s 755 mmHg 62%
    20:00 +16°C° 0 mm 3 m/s 755 mmHg 64%
    21:00 +16°C° 0 mm 3 m/s 756 mmHg 66%
    22:00 +14°C° 0 mm 3 m/s 755 mmHg 67%
    23:00 +14°C° 0 mm 3 m/s 755 mmHg 67%
    Mostrar mais